| time (UTC) | temp C | wind direction | speed KPH | gust KPH | rain 1hr cm | rain 24hr cm | rain mn cm | humidity % | barometer mb |
| 20260503052536 | 13 | 0.0 | 0.0 | 0.00 | 0.00 | 0.00 | 57 | 1021.2 | |
| 20260503050535 | 13 | 0.0 | 0.0 | 0.00 | 0.00 | 0.00 | 58 | 1021.4 | |
| 20260503044535 | 13 | 0.0 | 0.0 | 0.00 | 0.00 | 0.00 | 57 | 1021.4 | |
| 20260503042535 | 12 | 0.0 | 0.0 | 0.00 | 0.00 | 0.00 | 59 | 1021.5 | |
| 20260503040534 | 13 | 0.0 | 0.0 | 0.00 | 0.00 | 0.00 | 57 | 1021.5 | |
| 20260503034534 | 13 | 0.0 | 0.0 | 0.00 | 0.00 | 0.00 | 58 | 1021.5 | |
| 20260503032534 | 12 | 0.0 | 0.0 | 0.00 | 0.00 | 0.00 | 57 | 1021.5 | |
| 20260503030534 | 13 | 0.0 | 0.0 | 0.00 | 0.00 | 0.00 | 56 | 1021.6 | |
| 20260503024533 | 13 | 0.0 | 0.0 | 0.00 | 0.00 | 0.00 | 56 | 1021.7 | |
| 20260503022533 | 13 | 0.0 | 0.0 | 0.00 | 0.00 | 0.00 | 55 | 1021.9 | |
| 20260503020533 | 13 | 0.0 | 0.0 | 0.00 | 0.00 | 0.00 | 56 | 1022.1 | |
| 20260503014532 | 13 | 0.0 | 0.0 | 0.00 | 0.00 | 0.00 | 54 | 1022.1 | |
| 20260503012532 | 13 | 0.0 | 0.0 | 0.00 | 0.00 | 0.00 | 56 | 1022.1 | |
| 20260503010532 | 13 | 0.0 | 0.0 | 0.00 | 0.00 | 0.00 | 54 | 1022.3 | |
| 20260503004531 | 13 | 0.0 | 0.0 | 0.00 | 0.00 | 0.00 | 54 | 1022.5 | |
| 20260503002531 | 14 | 0.0 | 0.0 | 0.00 | 0.00 | 0.00 | 53 | 1022.7 | |
| 20260503000531 | 14 | 0.0 | 0.0 | 0.00 | 0.00 | 0.00 | 53 | 1023.0 | |
| 20260502234530 | 14 | 0.0 | 0.0 | 0.00 | 0.00 | 0.00 | 51 | 1023.2 | |
| 20260502232530 | 14 | 0.0 | 0.0 | 0.00 | 0.00 | 0.00 | 51 | 1023.3 | |
| 20260502230530 | 15 | 0.0 | 0.0 | 0.00 | 0.00 | 0.00 | 50 | 1023.2 | |
| 20260502224529 | 15 | 0.0 | 0.0 | 0.00 | 0.00 | 0.00 | 50 | 1023.2 | |
| 20260502222529 | 15 | 0.0 | 0.0 | 0.00 | 0.00 | 0.00 | 47 | 1023.1 | |
| 20260502220529 | 15 | 0.0 | 0.0 | 0.00 | 0.00 | 0.00 | 48 | 1023.3 | |
| 20260502214529 | 15 | 0.0 | 0.0 | 0.00 | 0.00 | 0.00 | 47 | 1023.5 | |
| 20260502212528 | 15 | 0.0 | 0.0 | 0.00 | 0.00 | 0.00 | 47 | 1023.3 | |
| 20260502210528 | 16 | 0.0 | 0.0 | 0.00 | 0.00 | 0.00 | 44 | 1023.1 | |
| 20260502204528 | 16 | 0.0 | 0.0 | 0.00 | 0.00 | 0.00 | 43 | 1023.2 | |
| 20260502202527 | 16 | 0.0 | 0.0 | 0.00 | 0.00 | 0.00 | 43 | 1023.4 | |
| 20260502200527 | 17 | 0.0 | 0.0 | 0.00 | 0.00 | 0.00 | 42 | 1023.5 | |
| 20260502194527 | 17 | 0.0 | 0.0 | 0.00 | 0.00 | 0.00 | 41 | 1023.5 | |
| 20260502192526 | 17 | 0.0 | 0.0 | 0.00 | 0.00 | 0.00 | 42 | 1023.2 | |
| 20260502190526 | 17 | 0.0 | 0.0 | 0.00 | 0.00 | 0.00 | 41 | 1023.0 | |
| 20260502184526 | 18 | 0.0 | 0.0 | 0.00 | 0.00 | 0.00 | 40 | 1022.8 | |
| 20260502182525 | 18 | 0.0 | 0.0 | 0.00 | 0.00 | 0.00 | 39 | 1022.7 | |
| 20260502180525 | 19 | 0.0 | 0.0 | 0.00 | 0.00 | 0.00 | 37 | 1022.5 | |
| 20260502162524 | 22 | 0.0 | 0.0 | 0.00 | 0.00 | 0.00 | 33 | 1022.1 | |
| 20260502160523 | 23 | 0.0 | 0.0 | 0.00 | 0.00 | 0.00 | 31 | 1022.2 | |
| 20260502150522 | 23 | 0.0 | 0.0 | 0.00 | 0.00 | 0.00 | 30 | 1022.6 | |
| 20260502130520 | 23 | 0.0 | 0.0 | 0.00 | 0.00 | 0.00 | 31 | 1024.1 | |
| 20260502122520 | 22 | 0.0 | 0.0 | 0.00 | 0.00 | 0.00 | 33 | 1024.6 | |
| 20260502120519 | 21 | 0.0 | 0.0 | 0.00 | 0.00 | 0.00 | 35 | 1024.7 | |
| 20260502114519 | 21 | 0.0 | 0.0 | 0.00 | 0.00 | 0.00 | 35 | 1025.2 | |
| 20260502112519 | 21 | 0.0 | 0.0 | 0.00 | 0.00 | 0.00 | 35 | 1025.5 | |
| 20260502110518 | 20 | 0.0 | 0.0 | 0.00 | 0.00 | 0.00 | 36 | 1025.8 | |
| 20260502104518 | 19 | 0.0 | 0.0 | 0.00 | 0.00 | 0.00 | 37 | 1026.0 | |
| 20260502102518 | 18 | 0.0 | 0.0 | 0.00 | 0.00 | 0.00 | 39 | 1026.3 | |
| 20260502100517 | 18 | 0.0 | 0.0 | 0.00 | 0.00 | 0.00 | 39 | 1026.4 | |
| 20260502090517 | 16 | 0.0 | 0.0 | 0.00 | 0.00 | 0.00 | 45 | 1027.1 | |
| 20260502070515 | 12 | 0.0 | 0.0 | 0.00 | 0.00 | 0.00 | 59 | 1028.0 | |
| 20260502064514 | 12 | 0.0 | 0.0 | 0.00 | 0.00 | 0.00 | 61 | 1028.1 | |
| 20260502062514 | 11 | 0.0 | 0.0 | 0.00 | 0.00 | 0.00 | 61 | 1028.2 | |
| 20260502060514 | 11 | 0.0 | 0.0 | 0.00 | 0.00 | 0.00 | 61 | 1028.4 | |
| 20260502054513 | 11 | 0.0 | 0.0 | 0.00 | 0.00 | 0.00 | 63 | 1028.4 |